Weather History for Blue Canyon, CA

Change the Weather History Date:

Tuesday, August 27, 2013

  Actual Average Record
Temperature  
Mean Temperature 66 °F -  
Max Temperature 75 °F 75 °F 89 °F (1972)
Min Temperature 60 °F 57 °F 45 °F (1954)
Cooling Degree Days 2    
Growing Degree Days 16 (Base 50)    
Moisture  
Dew Point 39 °F    
Average Humidity 38    
Maximum Humidity 55    
Minimum Humidity 26    
Precipitation  
Precipitation 0.00 in - - ()
Sea Level Pressure  
Sea Level Pressure 30.18 in    
Wind  
Wind Speed 3 mph (SSE)    
Max Wind Speed 14 mph    
Max Gust Speed 20 mph    
Visibility 5 miles    
Events      
Averages and records for this station are not official NWS values.
T = Trace of Precipitation, MM = Missing Value Source: NWS Daily Summary

Daily Weather History Graph

Daily Weather History Graph

Search for Another Location

Airport:

Trip Planner

Search our weather history database for the weather conditions in past years. The results will help you decide how hot, cold, wet, or windy it might be!

Date:

Astronomy

Aug. 27, 2013 Rise Set
Actual Time 6:27 AM PDT 7:40 PM PDT
Civil Twilight 5:59 AM PDT 8:08 PM PDT
Nautical Twilight 5:26 AM PDT 8:41 PM PDT
Astronomical Twilight 4:51 AM PDT 9:15 PM PDT
Moon 11:40 PM PDT (8/27) 1:27 PM PDT (8/27)
Length of Visible Light 14h 08m
Length of Day
13h 13m
Waning Gibbous, 56% of the Moon is Illuminated
Aug 27
Waning Gibbous
Aug 28
Last Quarter
Sep 5
New
Sep 12
First Quarter
Sep 19
Full

Hourly Weather History & Observations

Time (PDT) Temp. Dew Point Humidity Pressure Visibility Wind Dir Wind Speed Gust Speed Precip Events Conditions
12:52 AM 61.0 °F 44.1 °F 54% 29.89 in 4.0 mi Calm Calm - N/A   Haze
12:55 AM 60.8 °F 44.6 °F 55% 30.42 in 4.0 mi Calm Calm - N/A   Mostly Cloudy
1:02 AM 60.8 °F 44.6 °F 55% 30.42 in 2.5 mi East 3.5 mph - N/A   Mostly Cloudy
1:07 AM 60.8 °F 44.6 °F 55% 30.13 in 2.5 mi East 3.5 mph - N/A   Haze
1:12 AM 60.8 °F 44.6 °F 55% 30.13 in 2.5 mi East 3.5 mph - N/A   Haze
1:21 AM 60.8 °F 44.6 °F 55% 30.42 in 3.0 mi East 3.5 mph - N/A   Partly Cloudy
1:26 AM 60.8 °F 44.6 °F 55% 30.13 in 3.0 mi East 3.5 mph - N/A   Haze
1:46 AM 60.8 °F 42.8 °F 52% 30.42 in 2.5 mi ESE 3.5 mph - N/A   Clear
1:52 AM 61.0 °F 43.0 °F 52% 29.88 in 2.5 mi ESE 3.5 mph - N/A   Haze
1:55 AM 60.8 °F 42.8 °F 52% 30.42 in 2.5 mi ESE 3.5 mph - N/A   Clear
2:39 AM 60.8 °F 42.8 °F 52% 30.42 in 3.0 mi ESE 3.5 mph - N/A   Clear
2:44 AM 60.8 °F 42.8 °F 52% 30.12 in 3.0 mi ESE 3.5 mph - N/A   Haze
2:52 AM 61.0 °F 42.1 °F 50% 29.86 in 3.0 mi ESE 3.5 mph - N/A   Haze
2:55 AM 60.8 °F 42.8 °F 52% 30.42 in 3.5 mi ESE 3.5 mph - N/A   Clear
3:52 AM 61.0 °F 39.0 °F 44% 29.86 in 6.0 mi ESE 3.5 mph - N/A   Haze
3:55 AM 60.8 °F 39.2 °F 45% 30.41 in 6.0 mi ESE 3.5 mph - N/A   Clear
4:52 AM 61.0 °F 39.9 °F 46% 29.85 in 4.0 mi ESE 3.5 mph - N/A   Haze
4:55 AM 60.8 °F 39.2 °F 45% 30.41 in 4.0 mi ESE 3.5 mph - N/A   Clear
5:52 AM 61.0 °F 37.0 °F 41% 29.86 in 3.0 mi East 3.5 mph - N/A   Haze
5:55 AM 60.8 °F 37.4 °F 42% 30.42 in 3.0 mi ESE 3.5 mph - N/A   Clear
6:26 AM 62.6 °F 35.6 °F 37% 30.42 in 2.5 mi ESE 3.5 mph - N/A   Clear
6:31 AM 62.6 °F 35.6 °F 37% 30.11 in 2.5 mi Calm Calm - N/A   Haze
6:52 AM 62.1 °F 34.0 °F 35% 29.86 in 2.5 mi ESE 3.5 mph - N/A   Haze
6:55 AM 62.6 °F 33.8 °F 34% 30.42 in 2.5 mi Calm Calm - N/A   Clear
7:27 AM 62.6 °F 35.6 °F 37% 30.42 in 3.0 mi Calm Calm - N/A   Clear
7:32 AM 62.6 °F 35.6 °F 37% 30.11 in 3.0 mi Calm Calm - N/A   Haze
7:52 AM 64.0 °F 36.0 °F 35% 29.88 in 3.0 mi Calm Calm - N/A   Haze
7:55 AM 64.4 °F 35.6 °F 34% 30.42 in 3.0 mi Calm Calm - N/A   Clear
8:02 AM 64.4 °F 35.6 °F 34% 30.42 in 2.5 mi Calm Calm - N/A   Clear
8:07 AM 66.2 °F 37.4 °F 35% 30.11 in 2.5 mi Calm Calm - N/A   Haze
8:25 AM 66.2 °F 37.4 °F 35% 30.42 in 3.0 mi SE 3.5 mph - N/A   Clear
8:30 AM 66.2 °F 35.6 °F 32% 30.11 in 3.0 mi Calm Calm - N/A   Haze
8:52 AM 66.9 °F 37.0 °F 33% 29.87 in 5.0 mi Calm Calm - N/A   Haze
8:55 AM 66.2 °F 37.4 °F 35% 30.42 in 5.0 mi Calm Calm - N/A   Clear
9:07 AM 66.2 °F 37.4 °F 35% 30.42 in 2.5 mi South 3.5 mph - N/A   Partly Cloudy
9:12 AM 66.2 °F 37.4 °F 35% 30.11 in 2.0 mi South 4.6 mph - N/A   Haze
9:15 AM 66.2 °F 37.4 °F 35% 30.11 in 1.8 mi South 4.6 mph - N/A   Haze
9:16 AM 66.2 °F 37.4 °F 35% 30.42 in 1.8 mi South 4.6 mph - N/A   Mostly Cloudy
9:28 AM 68.0 °F 37.4 °F 33% 30.11 in 1.2 mi Variable 3.5 mph - N/A   Haze
9:39 AM 69.8 °F 35.6 °F 28% 30.11 in 1.8 mi SE 3.5 mph - N/A   Haze
9:41 AM 69.8 °F 35.6 °F 28% 30.42 in 2.0 mi Calm Calm - N/A   Mostly Cloudy
9:43 AM 69.8 °F 35.6 °F 28% 30.11 in 2.0 mi South 4.6 mph - N/A   Haze
9:47 AM 69.8 °F 37.4 °F 31% 30.42 in 1.8 mi SSE 3.5 mph - N/A   Mostly Cloudy
9:49 AM 69.8 °F 35.6 °F 28% 30.11 in 1.8 mi SSE 4.6 mph - N/A   Haze
9:52 AM 69.1 °F 36.0 °F 30% 29.87 in 1.8 mi South 4.6 mph - N/A   Haze
9:54 AM 68.0 °F 35.6 °F 30% 30.42 in 2.0 mi South 6.9 mph - N/A   Scattered Clouds
9:55 AM 68.0 °F 35.6 °F 30% 30.42 in 2.0 mi South 8.1 mph - N/A   Scattered Clouds
9:59 AM 68.0 °F 35.6 °F 30% 30.11 in 2.0 mi SSE 5.8 mph - N/A   Haze
10:17 AM 69.8 °F 35.6 °F 28% 30.42 in 3.0 mi Variable 4.6 mph - N/A   Scattered Clouds
10:22 AM 69.8 °F 35.6 °F 28% 30.11 in 4.0 mi Variable 4.6 mph - N/A   Haze
10:52 AM 70.0 °F 36.0 °F 29% 29.86 in 4.0 mi Variable 3.5 mph - N/A   Haze
10:55 AM 69.8 °F 35.6 °F 28% 30.42 in 4.0 mi South 5.8 mph - N/A   Partly Cloudy
11:52 AM 72.0 °F 37.0 °F 28% 29.85 in 6.0 mi SSW 9.2 mph - N/A   Haze
11:55 AM 71.6 °F 37.4 °F 29% 30.41 in 6.0 mi South 8.1 mph - N/A   Clear
12:52 PM 73.0 °F 39.0 °F 29% 29.84 in 5.0 mi South 9.2 mph - N/A   Haze
12:55 PM 73.4 °F 37.4 °F 27% 30.41 in 5.0 mi South 9.2 mph - N/A   Clear
1:52 PM 73.9 °F 37.0 °F 26% 29.83 in 5.0 mi South 13.8 mph 19.6 mph N/A   Haze
1:55 PM 73.4 °F 37.4 °F 27% 30.41 in 5.0 mi South 11.5 mph - N/A   Clear
2:52 PM 73.9 °F 41.0 °F 30% 29.81 in 9.0 mi Variable 3.5 mph - N/A   Partly Cloudy
2:55 PM 73.4 °F 41.0 °F 31% 30.41 in 9.0 mi Variable 5.8 mph - N/A   Partly Cloudy
3:52 PM 73.0 °F 41.0 °F 31% 29.81 in 10.0 mi SW 9.2 mph - N/A   Clear
3:55 PM 73.4 °F 41.0 °F 31% 30.41 in 10.0 mi SW 8.1 mph - N/A   Clear
4:52 PM 71.1 °F 42.1 °F 35% 29.82 in 10.0 mi SW 8.1 mph 16.1 mph N/A   Overcast
4:55 PM 71.6 °F 42.8 °F 35% 30.41 in 10.0 mi WSW 5.8 mph - N/A   Overcast
5:52 PM 70.0 °F 39.9 °F 33% 29.82 in 10.0 mi SW 6.9 mph - N/A   Mostly Cloudy
5:55 PM 69.8 °F 39.2 °F 33% 30.41 in 10.0 mi WSW 6.9 mph - N/A   Mostly Cloudy
6:52 PM 69.1 °F 41.0 °F 36% 29.81 in 10.0 mi Variable 3.5 mph - N/A   Overcast
6:55 PM 69.8 °F 41.0 °F 35% 30.41 in 10.0 mi WSW 4.6 mph - N/A   Mostly Cloudy
7:52 PM 66.0 °F 41.0 °F 40% 29.83 in 10.0 mi SW 3.5 mph - N/A   Mostly Cloudy
7:55 PM 66.2 °F 41.0 °F 40% 30.41 in 10.0 mi Variable 3.5 mph - N/A   Mostly Cloudy
8:52 PM 64.9 °F 41.0 °F 42% 29.83 in 10.0 mi Calm Calm - N/A   Scattered Clouds
8:55 PM 64.4 °F 41.0 °F 42% 30.41 in 10.0 mi Calm Calm - N/A   Mostly Cloudy
9:52 PM 64.0 °F 39.9 °F 41% 29.83 in 10.0 mi SSE 3.5 mph - N/A   Partly Cloudy
9:55 PM 64.4 °F 39.2 °F 40% 30.41 in 10.0 mi Calm Calm - N/A   Partly Cloudy
10:52 PM 63.0 °F 41.0 °F 45% 29.82 in 10.0 mi Calm Calm - N/A   Partly Cloudy
10:55 PM 62.6 °F 41.0 °F 45% 30.41 in 10.0 mi Calm Calm - N/A   Partly Cloudy
11:52 PM 62.1 °F 41.0 °F 46% 29.82 in 10.0 mi Calm Calm - N/A   Clear
11:55 PM 62.6 °F 41.0 °F 45% 30.41 in 10.0 mi Calm Calm - N/A   Clear